Location: Tafessasset
(32.5930°N, 5.4770°W)
Time: 14:36:45
(UTC+00:00)

Daily predictions for brighter satellites

Satellite Brightness Start Highest point End
(mag) Time Altitude Azimuth Time Altitude Azimuth Time Altitude Azimuth
NOSS 3-1 (C) 3.2 19:38:00 10° SSW 19:43:13 87° WNW 19:49:07 10° NNE
Cosmos 1862 Rocket 3.6 19:40:23 10° S 19:44:47 65° E 19:49:09 10° NNE
NOSS 3-1 (A) 3.3 19:40:26 10° S 19:45:30 54° ESE 19:51:08 10° NE
STARLINK-1161 3.7 19:41:47 10° NW 19:45:56 78° NE 19:50:03 10° SE
FREGAT/IRIS 3.2 19:44:57 10° SE 19:47:20 30° ENE 19:49:44 10° NNE
Cosmos 1733 Rocket 3.3 19:43:33 10° N 19:47:46 49° E 19:51:58 10° SSE
STARLINK-1238 3.8 19:44:18 10° SW 19:48:26 78° NW 19:52:35 10° NE
CZ-2C R/B 4.4 19:45:38 10° NE 19:49:41 32° E 19:53:45 10° SSE
SL-08 RB Rocket 4.4 19:45:45 10° SE 19:49:58 37° ENE 19:54:11 10° N
CZ-4 R/B 4.1 19:46:49 10° SSW 19:50:03 22° W 19:53:20 10° NW
STARLINK-1160 3.6 19:46:46 10° NW 19:50:55 87° NE 19:55:02 10° SE
IRS-1A Rocket 4.5 19:45:54 10° SSE 19:51:39 61° ENE 19:57:19 10° N
STARLINK-1201 4.0 19:49:18 10° SW 19:53:24 69° NW 19:57:32 10° NE
ERBS 3.4 19:52:46 10° S 19:55:27 23° ESE 19:58:09 10° ENE
STARLINK-1170 3.7 19:51:44 10° NW 19:55:53 84° SW 20:00:00 10° SE
NOSS 2-3 (C) 3.6 19:52:29 10° SSW 19:56:30 53° ESE 20:00:51 10° NE
Cosmos 2278 Rocket 3.4 19:53:40 10° SE 19:57:41 20° E 20:01:43 10° NE
STARLINK-1206 4.2 19:54:18 10° SW 19:58:23 61° NW 20:02:29 10° NE
Cosmos 1607 4.4 19:53:55 10° NNW 20:00:09 52° ENE 20:06:22 10° SE
Delta 128 4.5 19:53:46 10° WSW 20:00:12 55° S 20:05:36 10° E
Meteor 2-11 Rocket 4.4 19:54:19 10° N 20:00:27 83° E 20:06:31 10° S
STARLINK-1150 3.7 19:56:44 10° NW 20:00:52 74° SW 20:04:59 10° SE
Cosmos 1844 Rocket 3.4 19:57:02 10° SSW 20:02:37 60° WNW 20:08:13 10° NNE
Cosmos 1666 2.6 19:59:23 10° N 20:03:15 75° E 20:07:03 10° S
STARLINK-1205 4.5 19:59:19 10° WSW 20:03:22 55° NW 20:07:26 10° NE
Okean 1 4.1 20:01:22 10° SSE 20:04:59 33° E 20:08:37 10° NNE
STARLINK-1151 3.9 20:01:43 10° NW 20:05:50 66° SW 20:09:49 11° SSE
H-2A R/B 2.1 20:01:01 10° S 20:05:57 79° WSW 20:11:03 10° NNW
Cosmos 2034 Rocket 4.4 20:02:10 10° N 20:07:59 42° E 20:13:45 10° SSE
STARLINK-1133 4.0 20:06:42 10° NW 20:10:47 58° SW 20:14:34 12° SSE
STARLINK-1202 4.5 20:07:20 10° S 20:10:50 27° SE 20:14:21 10° ENE
Resurs 01 Rocket 3.1 20:08:35 12° ESE 20:11:27 21° ENE 20:14:44 10° NNE
Cosmos 44 Rocket 4.0 20:07:10 10° NNW 20:11:48 41° ENE 20:15:44 14° SE
Meteor 1-4 Rocket 4.2 20:10:59 14° ESE 20:12:10 16° E 20:14:22 10° NE
Cosmos 1371 Rocket 4.1 20:10:12 10° S 20:15:18 53° ESE 20:20:23 10° NNE
STARLINK-1139 4.2 20:11:44 10° NW 20:15:44 51° SW 20:19:22 12° SSE
Cosmos 1513 Rocket 4.4 20:09:57 10° N 20:16:03 76° E 20:22:12 10° S
Cosmos 1703 Rocket 3.7 20:14:49 10° SSE 20:19:00 50° E 20:23:11 10° NNE
CZ-2C R/B 3.8 20:14:32 10° S 20:19:42 57° W 20:25:11 10° NNW
GOES 2 Rocket 4.4 20:12:19 10° W 20:20:32 60° S 20:25:41 16° ESE
STARLINK-1246 4.2 20:16:59 10° SSW 20:20:42 34° SE 20:24:28 10° ENE
STARLINK-1174 4.4 20:16:45 10° WNW 20:20:42 45° SW 20:24:09 13° SSE
Meteor 1-18 Rocket 4.4 20:16:13 10° SSE 20:21:33 51° E 20:26:58 10° NNE
USA 186 2.4 20:20:21 10° S 20:22:33 37° W 20:24:53 10° NNW
IUS-15 SRM-1 3.9 20:18:05 10° WSW 20:22:41 30° SSW 20:23:49 20° SE
STARLINK-1224 4.0 20:21:50 10° SSW 20:25:40 38° SE 20:29:32 10° ENE
Ariane Rocket 3.6 20:21:12 10° S 20:26:08 56° W 20:31:08 10° NNW
Cosmos 1536 3.6 20:23:07 10° NNW 20:27:04 52° W 20:31:01 10° S
Cosmos 1464 Rocket 4.1 20:23:12 10° N 20:29:35 84° W 20:35:58 10° S
STARLINK-1225 3.9 20:26:42 10° SSW 20:30:37 43° SE 20:34:33 10° ENE
Cosmos 2251 Rocket 4.0 20:26:12 10° NNW 20:31:20 61° WSW 20:36:28 10° S
STARLINK-1178 4.5 20:29:06 10° NNW 20:32:59 38° NE 20:35:20 20° E
SJ-6B 3.1 20:29:20 10° S 20:33:04 61° W 20:36:45 10° NNW
STARLINK-1230 3.7 20:31:36 10° SSW 20:35:35 49° SE 20:39:35 10° NE
STARLINK-1120 4.3 20:34:01 10° NNW 20:37:58 42° NE 20:40:07 23° E
Cosmos 1908 Rocket 3.5 20:33:46 10° N 20:38:13 70° E 20:41:24 19° SSE
Meteor 2-4 Rocket 4.3 20:35:23 19° SE 20:38:30 34° E 20:43:17 10° NNE
SEDSat Delta rocket 4.0 20:32:03 10° W 20:38:53 79° S 20:43:53 19° ESE
Cosmos 371 Rocket 4.5 20:38:42 21° ESE 20:39:18 22° E 20:42:58 10° NE
STARLINK-1243 3.6 20:36:30 10° SSW 20:40:32 55° SE 20:44:36 10° NE
COSMOS 2406 4.4 20:36:34 10° N 20:41:24 27° ENE 20:44:03 19° E
DMSP B5D2-2 4.5 20:36:18 10° N 20:41:33 67° WNW 20:46:45 10° SSW
Cosmos 389 Rocket 3.4 20:39:21 10° SSW 20:42:40 48° W 20:46:03 10° N
ASTEX 1 3.6 20:37:52 10° S 20:42:43 70° W 20:47:36 10° N
STARLINK-1131 4.2 20:38:57 10° NNW 20:42:57 47° NE 20:44:54 26° ESE
STARLINK-1087 4.2 20:42:00 10° N 20:43:03 16° NNE 20:43:03 16° NNE
Cosmos 1544 4.1 20:40:26 10° NNE 20:43:34 27° E 20:44:03 26° E
Cosmos 2056 Rocket 3.4 20:38:35 10° SSW 20:43:42 87° ESE 20:48:49 10° NNE
Hubble Space Telescope 1.1 20:39:54 10° WSW 20:43:52 47° S 20:45:26 30° SE
STARLINK-1236 3.5 20:41:27 10° SSW 20:45:31 63° SE 20:49:36 10° NE
STARLINK-1190 4.0 20:43:53 10° NW 20:47:56 53° NE 20:49:40 30° ESE
Resurs 1-3 3.5 20:45:15 21° SSE 20:48:11 85° ENE 20:52:34 10° N
STARLINK-1129 3.8 20:48:51 10° NW 20:52:57 59° NE 20:54:28 35° ESE
STARLINK-1269 3.5 20:51:18 10° SW 20:55:26 80° SE 20:59:34 10° NE
Orbus 7S 4.0 20:50:51 10° W 20:56:23 36° SSW 20:57:01 33° S
IUS-1 SRM-2 3.8 20:56:25 10° SW 20:56:42 11° SW 20:56:42 11° SW
STARLINK-1134 3.7 20:53:48 10° NW 20:57:55 66° NE 20:59:15 40° ESE
Cosmos 1356 3.4 20:54:40 10° N 20:58:06 63° E 20:58:41 52° SE
H-2A R/B 2.7 20:57:36 10° WSW 21:00:20 31° S 21:01:49 27° SSE
STARLINK-1200 3.5 20:56:17 10° SW 21:00:25 90° SE 21:04:34 10° NE
Tsikada Rocket 4.3 20:54:48 10° SSW 21:01:00 69° W 21:07:09 10° N
STARLINK-1135 3.6 20:58:46 10° NW 21:02:54 74° NE 21:04:02 46° ESE
Okean 3 3.7 21:02:15 41° SE 21:03:14 50° E 21:07:24 10° NNE
BREEZE M DEB (TANK) 4.4 20:51:48 10° WSW 21:03:31 60° NW 21:07:00 10° NE
Cosmos 1743 3.3 21:01:10 10° NNW 21:04:53 54° W 21:06:49 25° SSW
STARLINK-1192 3.6 21:01:17 10° SW 21:05:25 81° NW 21:09:33 10° NE
STARLINK-1157 3.6 21:02:16 10° WNW 21:05:26 44° SW 21:05:49 42° SSW
STARLINK-1141 3.5 21:03:43 10° NW 21:07:53 83° NE 21:08:49 52° SE
STARLINK-1244 3.8 21:06:15 10° SW 21:10:22 72° NW 21:14:31 10° NE
Cosmos 909 Rocket 4.3 21:03:36 10° NNW 21:10:59 66° ENE 21:13:52 34° SE
GPS 2-04 Rocket1 2.2 21:09:15 10° WSW 21:12:48 77° SSE 21:12:56 76° SE
STARLINK-1140 3.5 21:08:42 10° NW 21:12:51 87° SW 21:13:36 59° SE
Cosmos 1452 Rocket 3.6 21:12:48 38° SSE 21:14:28 54° ESE 21:19:37 10° NNE
Cosmos 2082 Rocket 3.8 21:10:43 10° NNE 21:14:41 19° ENE 21:16:03 17° ENE
STARLINK-1138 4.0 21:11:14 10° SW 21:15:20 64° NW 21:19:27 10° NE
STARLINK-1156 3.5 21:13:41 10° NW 21:17:50 78° SW 21:18:23 63° SSE
Cosmos 1420 Rocket 3.9 21:14:57 16° SSW 21:19:11 88° WNW 21:24:24 10° NNE
Cosmos 1833 Rocket 3.5 21:14:11 10° N 21:19:15 34° ENE 21:20:27 31° E
Landsat 7 4.2 21:18:38 42° E 21:19:18 44° ENE 21:23:49 10° N
STARLINK-1143 4.2 21:16:15 10° SW 21:20:19 57° NW 21:24:24 10° NE
Aureole 1 Rocket 3.5 21:16:03 10° NNW 21:20:43 80° ENE 21:22:39 43° SSE
Cosmos 407 Rocket 3.6 21:16:56 10° NNW 21:22:17 78° WSW 21:24:15 40° S
STARLINK-1148 3.6 21:18:40 10° NW 21:22:47 69° SW 21:23:09 64° S
STARLINK-1203 4.4 21:19:54 10° WSW 21:24:00 52° NW 21:28:06 10° NE
STARLINK-1241 4.4 21:21:17 10° WSW 21:25:19 51° NW 21:29:22 10° NE
Cosmos 1300 Rocket 4.2 21:22:27 10° N 21:26:23 40° ENE 21:26:23 40° ENE
STARLINK-1158 3.7 21:23:40 10° NW 21:27:45 61° SW 21:27:57 60° SSW
Meteor 2-9 Rocket 4.1 21:25:18 10° NNW 21:30:39 74° W 21:32:32 41° S
Cosmos 332 Rocket 3.8 21:32:39 60° ESE 21:32:41 60° ESE 21:37:30 10° NNE
STARLINK-1162 3.9 21:28:41 10° NW 21:32:44 54° SW 21:32:45 54° SW
Cosmos 1674 Rocket 4.4 21:36:52 37° NE 21:36:52 37° NE 21:39:59 10° NNE
Cosmos 2221 Rocket 4.0 21:37:21 43° SW 21:38:38 62° W 21:43:08 10° N
USA 245 3.6 21:40:17 55° N 21:40:17 55° N 21:42:49 10° NNW
Cosmos 1975 3.9 21:36:56 10° NNW 21:40:44 39° W 21:41:27 36° WSW
Orbus 7S 4.4 21:37:16 10° WSW 21:53:58 - E 21:40:29 49° S
SPOT 1/Viking Rocket 3.5 21:40:43 61° ESE 21:41:14 65° ENE 21:46:20 10° N
Cosmos 2278 Rocket 3.3 21:35:59 10° SW 21:41:21 43° WNW 21:46:46 10° N
STARLINK-1159 4.5 21:38:43 10° WNW 21:42:17 41° WSW 21:42:17 41° WSW
Cosmos 1190 Rocket 4.5 21:41:10 10° NNW 21:46:14 54° WSW 21:47:26 44° SSW
Cosmos 2142 Rocket 4.4 21:41:30 10° N 21:47:39 90° W 21:49:13 54° S
Resurs 01 Rocket 3.3 21:46:09 23° SW 21:47:42 28° W 21:51:33 10° NW
Cosmos 1140 Rocket 3.9 21:45:22 10° NNW 21:50:26 55° WSW 21:51:24 47° SW
Cosmos 1437 Rocket 3.9 21:53:11 36° N 21:53:11 36° N 21:55:31 10° N
ERS-1 Rocket 3.0 22:00:14 70° NE 22:00:14 70° NE 22:05:00 10° N
Nadezhda 4 Rocket 3.9 22:00:37 63° ESE 22:00:50 64° E 22:06:54 10° NNE
Terra 2.7 22:04:56 39° NE 22:04:56 39° NE 22:08:32 10° N
SeaSat 1 4.1 21:59:27 10° NE 22:01:28 22° NE 22:01:28 22° NE
Spot 2 Rocket 4.3 22:10:44 39° WSW 22:11:15 41° W 22:15:59 10° NNW
Okean 2 Rocket 4.0 22:07:41 10° NNW 22:11:32 43° WNW 22:11:32 43° WNW
Cosmos 1954 Rocket 4.4 22:07:16 10° NNW 22:12:24 55° WSW 22:12:30 55° WSW
Cosmos 2279 Rocket 4.2 22:10:05 10° NNW 22:16:12 62° W 22:17:17 54° SW
ATLAS 3B CENTAUR R/B 3.3 22:05:51 10° WSW 22:15:14 46° SSW 22:15:14 46° SSW
Lacrosse 5 3.0 22:15:59 10° NNW 22:20:15 34° NE 22:20:15 34° NE
Okean 1 Rocket 4.4 22:19:54 10° N 22:22:37 35° NNE 22:22:37 35° NNE
COSMOS 2406 4.3 22:20:31 10° NW 22:25:40 35° WSW 22:26:07 34° WSW
Meteor 1-23 Rocket 4.4 22:25:44 67° W 22:25:56 67° W 22:31:36 10° N
Cosmos 2297 4.3 22:39:18 50° W 22:39:47 51° WNW 22:45:20 10° N
Cosmos 1092 Rocket 4.0 22:41:42 71° NNE 22:41:42 71° NNE 22:47:09 10° N
SPOT 5 4.1 22:49:14 38° WNW 22:49:14 38° WNW 22:53:18 10° NNW
Cosmos 2082 Rocket 3.0 22:53:31 10° NNW 22:57:54 44° WNW 22:57:54 44° WNW
H-2A ROCKET BODY 4.4 22:52:36 11° WSW 23:00:18 66° SSE 23:54:28 10° E
Cosmos 1833 Rocket 4.3 22:58:22 10° NW 23:02:09 25° W 23:02:09 25° W
Cosmos 2369 Rocket 3.3 23:08:00 37° NNE 23:08:00 37° NNE 23:11:21 10° NNE
Cosmos 1943 Rocket 3.1 23:10:23 45° N 23:10:23 45° N 23:14:16 10° NNE
CENTAUR R/B 4.4 23:29:33 10° NNW 23:36:54 34° NE 23:39:47 28° E
SeaSat 1 4.5 23:37:34 10° N 23:41:14 22° NW 23:41:14 22° NW
Terra 4.5 23:43:49 12° WNW 23:43:49 12° WNW 23:44:30 10° WNW
